Regional Weather Roundup
Issued by NWS Newport/Morehead, NC

Current Version | Previous Version | Graphics & Text | Print | Product List | Glossary Off
Versions: 1 2 3 4 5 6 7 8 9 10 11 12 13 14 15 16 17 18 19 20 21 22 23 24 25 26 27 28 29 30 31 32 33 34 35 36 37 38 39 40 41 42 43 44 45 46 47 48 49 50

000
ASUS42 KMHX 311422
RWRMHX
WEATHER ROUNDUP FOR EASTERN NORTH CAROLINA
NATIONAL WEATHER SERVICE NEWPORT/MOREHEAD CITY NC
1000 AM EDT FRI OCT 31 2014

NOTE: "FAIR" INDICATES FEW OR NO CLOUDS BELOW 12,000 FEET
WITH NO SIGNIFICANT WEATHER AND/OR OBSTRUCTIONS TO VISIBILITY

NCZ015>017-031-032-045>047-102-103-311500-
NORTH COAST

CITY           SKY/WX    TMP DP  RH WIND       PRES   REMARKS
EDENTON        CLOUDY    57  49  77 N10       29.90F
ELIZABETH CITY CLOUDY    59  48  67 N13       29.91F
KITTY HAWK     CLOUDY    60  46  59 NE9G18    29.86F
MANTEO         CLOUDY    60  47  62 NE20      29.86F

$$

NCZ045>047-081-094-103-104-311500-
CENTRAL COAST

CITY           SKY/WX    TMP DP  RH WIND       PRES   REMARKS
FRISCO         LGT RAIN  56  54  93 NE13G23   29.84F FOG
SWANQUARTER      N/A     59 N/A N/A NE13G21   29.82F

$$

NCZ095-097-098-100-101-311500-
SOUTHERN COAST

CITY           SKY/WX    TMP DP  RH WIND       PRES   REMARKS
BEAUFORT       MOSUNNY   62  48  60 NE16G28   29.86F
CEDAR ISLAND     N/A     61 N/A N/A N25       29.88F
JACKSONVILLE   SUNNY     56  46  69 N10       29.89S
PINEY ISLAND   CLOUDY    64  47  53 N16       29.86F
WILMINGTON     SUNNY     58  48  69 N9        29.90F


$$

NCZ011>013-027>030-043-044-078>080-089-090>093-098-311500-
COASTAL PLAIN

CITY           SKY/WX    TMP DP  RH WIND       PRES   REMARKS
AHOSKIE        NOT AVBL
CLINTON        SUNNY     56  47  71 NE5       29.93F
ELIZABETHTOWN  SUNNY     54  47  76 N3        29.93S
GOLDSBORO      SUNNY     54  49  83 N7        29.91F
GREENVILLE     SUNNY     54  46  76 NE7       29.94F
HAVELOCK       MOSUNNY   59  49  69 N13       29.89S
KENANSVILLE    SUNNY     55  45  68 N7        29.93F
KINSTON        SUNNY     55  46  71 N8        29.93F
NEW BERN       MOSUNNY   57  47  69 N9        29.91S
RICHLANDS      SUNNY     55  45  67 N12       29.91S
ROCKY MOUNT    SUNNY     53  44  71 N7        29.94F
WASHINGTON     MOSUNNY   55  47  75 NE10      29.91F
WHITEVILLE     SUNNY     56  46  70 NE5       29.91F

$$

AMZ130-135-150-152-154-156-158-170-250-252-270-ANZ085-086-088-633-658-670-311500-
MARINE OBSERVATIONS

STATION/POSITION TIME  TEMP    WIND        PRES    WAVE   SWELL
                       AIR SEA DIR/SP/G            HT/PER HT/PER
                 (UTC) (F)     (DEG/KT/KT) (MB)    (FT/S) (FT/S)
CHESAPEAKE LIGHT 1400   57      10/ 16/ 17 1013.8
64 E VA BEACH    1400   61 66   40/ 16/ 19 1011.6    3/ 4   2/ 7
DUCK             1400   60 65   40/ 20/ 22 1011.1
2 E DUCK         NOT AVBL
10 NE DUCK       1400      67                N/A     4/ 5
OREGON INLET     1400   60 66   10/ 13/ 20 1011.5
13E OREGON INLT  1400      69                N/A     5/ 5
HATTERAS CG      1400   60 65   20/ 21/ 26 1010.4
DIAMOND BUOY     1400   65      10/ 27/ 33 1008.4    6/ 6   2/12
17 S OCRACOKE    NOT AVBL
CAPE LOOKOUT     1400   61      10/ 18/ 22 1010.7
BEAUFORT LAB     1400   61 67   20/ 15/ 19 1010.4
30 SE NEW RIVER  1400   63 74   30/ 23/ 27 1009.8    6/ 6
5 SE WRIGHTSVLE  1400   57 71   30/ 16/ 19   N/A
225 S CAPE HAT   1348   74 78  250/ 10/ 14 1010.2    4/ 7   3/ 7
41 SE CHARLESTON 1400   67 76   20/ 17/ 19 1010.7    6/ 7

$$



USA.gov is the U.S. government's official web portal to all federal, state and local government web resources and services.